모두
Bronzewing Airport (Lake Darlot Western Australia) YBWG 기상
There is no TAF data available at YBWG or any nearby airports.
There is no METAR data available at YBWG. Showing METAR data for YMNE (30 mi 서).
최근 WME METAR 이력(YBWG에 대한 데이터 없음)
| Date | Time (AWST) | Flight Rules | Wind Dir. | Speed | Type | Height AGL (ft) | Visibility | Temp (°C) | Temp (°F) | Dew Point (°C) | Dew Point (°F) | Rel. Humid. | Pressure | Density Altitude | Remarks |
|---|---|---|---|---|---|---|---|---|---|---|---|---|---|---|---|
| 04-5월 | 09:00 | VFR | 110° | 11 kt | 10000 meters | 15° | 59° | 5° | 41° | 51% | 1027 mb | 1,622 ft | |||
| 04-5월 | 08:00 | VFR | 110° | 8 kt | 10000 meters | 13° | 55° | 5° | 41° | 58% | 1027 mb | 1,382 ft | |||
| 04-5월 | 07:00 | VFR | 120° | 3 kt | 10000 meters | 9° | 48° | 5° | 41° | 76% | 1026 mb | 932 ft | |||
| 04-5월 | 06:00 | VFR | 120° | 4 kt | 10000 meters | 8° | 46° | 4° | 39° | 76% | 1025 mb | 841 ft | |||
| 04-5월 | 05:00 | VFR | 120° | 5 kt | 10000 meters | 9° | 48° | 5° | 41° | 76% | 1025 mb | 961 ft | |||
| 04-5월 | 04:00 | VFR | 120° | 4 kt | 10000 meters | 9° | 48° | 4° | 39° | 71% | 1025 mb | 961 ft | |||
| 04-5월 | 03:00 | VFR | 120° | 3 kt | 10000 meters | 9° | 48° | 4° | 39° | 71% | 1024 mb | 991 ft | |||
| 04-5월 | 02:00 | VFR | 120° | 5 kt | 10000 meters | 11° | 51° | 5° | 41° | 66% | 1024 mb | 1,231 ft | |||
| 04-5월 | 01:00 | VFR | 120° | 5 kt | 10000 meters | 11° | 51° | 4° | 39° | 62% | 1024 mb | 1,231 ft | |||
| 04-5월 | 00:00 | VFR | 120° | 6 kt | 10000 meters | 12° | 53° | 4° | 39° | 58% | 1024 mb | 1,351 ft | |||
| 03-5월 | 23:00 | VFR | 130° | 7 kt | 10000 meters | 12° | 53° | 3° | 37° | 54% | 1024 mb | 1,351 ft | |||
| 03-5월 | 22:00 | VFR | 120° | 6 kt | 10000 meters | 12° | 53° | 3° | 37° | 54% | 1024 mb | 1,351 ft | |||
| 03-5월 | 21:00 | VFR | 120° | 5 kt | 10000 meters | 13° | 55° | 3° | 37° | 51% | 1024 mb | 1,471 ft | |||
| 03-5월 | 20:00 | VFR | 120° | 5 kt | 10000 meters | 14° | 57° | 3° | 37° | 47% | 1024 mb | 1,591 ft | |||
| 03-5월 | 19:00 | VFR | 120° | 5 kt | 10000 meters | 15° | 59° | 2° | 35° | 41% | 1023 mb | 1,740 ft | |||
| 03-5월 | 18:00 | VFR | 130° | 6 kt | 10000 meters | 17° | 62° | 2° | 35° | 36% | 1023 mb | 1,980 ft | |||
| 03-5월 | 17:00 | VFR | 150° | 9 kt | 10000 meters | 19° | 66° | 2° | 35° | 32% | 1022 mb | 2,250 ft | |||
| 03-5월 | 16:00 | VFR | 130° | 9 kt | 10000 meters | 19° | 66° | 2° | 35° | 32% | 1022 mb | 2,250 ft | |||
| 03-5월 | 15:00 | VFR | 140° | 11 kt | 10000 meters | 19° | 66° | 2° | 35° | 32% | 1022 mb | 2,250 ft | |||
| 03-5월 | 14:00 | VFR | 150° | 10 kt | 10000 meters | 19° | 66° | 2° | 35° | 32% | 1022 mb | 2,250 ft | |||
| 03-5월 | 13:00 | VFR | 130° | 7 kt | 10000 meters | 18° | 64° | 2° | 35° | 34% | 1022 mb | 2,130 ft | |||
| 03-5월 | 12:00 | VFR | 100° | 8 kt | 10000 meters | 18° | 64° | 2° | 35° | 34% | 1023 mb | 2,100 ft | |||
| 03-5월 | 11:00 | VFR | 130° | 8 kt | 10000 meters | 17° | 62° | 2° | 35° | 36% | 1024 mb | 1,951 ft | |||
| 03-5월 | 10:00 | VFR | 100° | 10 kt | 10000 meters | 16° | 60° | 2° | 35° | 39% | 1025 mb | 1,801 ft |
로그인
| 귀하의 브라우저는 지원되지 않습니다.. 브라우저를 업그레이드하세요 |
